{"data":{"norad_id":28446,"epoch":"2026-09-19T21:36:17.160768Z","epoch_age_seconds":66161,"freshness":"FRESH","line1":"1 28446U 04041A   26262.90019862 -.00000093  00000+0  00000+0 0  9997","line2":"2 28446   0.0283 310.5564 0001991 207.1971  60.0854  1.00272564 80255","mean_motion":1.00272564,"eccentricity":0.0001991,"inclination_deg":0.0283,"raan_deg":310.5564,"arg_perigee_deg":207.1971,"mean_anomaly_deg":60.0854,"bstar":0,"rev_number":8025,"period_min":1436.0857472439,"perigee_km":35777.981625972,"apogee_km":35794.77153528,"semimajor_km":42164.513580626,"source":"CELESTRAK","updated_at":"2026-09-20T09:00:35.637008Z"}}